{"data":{"norad_id":59075,"epoch":"2026-09-20T03:09:08.705664Z","epoch_age_seconds":187565,"freshness":"STALE","line1":"1 59075U 24041B   26263.13135076 -.00000121  00000+0  51292-5 0  9990","line2":"2 59075  43.0028 292.1918 0000985 272.3458  87.7281 15.27576392144065","mean_motion":15.27576392,"eccentricity":9.85e-5,"inclination_deg":43.0028,"raan_deg":292.1918,"arg_perigee_deg":272.3458,"mean_anomaly_deg":87.7281,"bstar":5.1292e-6,"rev_number":14406,"period_min":94.266971363354,"perigee_km":482.38407181627,"apogee_km":483.73572760551,"semimajor_km":6861.1968997109,"source":"CELESTRAK","updated_at":"2026-09-21T09:00:34.033543Z"}}